CW1411 Weather Reports


Display with metric or nautical units.
time (UTC)temp
F
wind
direction
speed
MPH
gust
MPH
rain 1hr
in
rain 24hr
in
rain mn
in
humidity
%
barometer
mb
20170426134658 53 10 0.0 0.0 0.01 0.20 0.08 95 1010.3
20170426134148 53 9 0.0 1.0 0.01 0.20 0.08 95 1010.3
20170426133649 53 9 0.0 4.0 0.01 0.20 0.08 95 1010.3
20170426133149 53 10 0.0 4.0 0.00 0.19 0.07 95 1010.4
20170426132640 53 11 0.0 3.0 0.00 0.20 0.07 95 1010.3
20170426132135 53 9 0.0 3.0 0.00 0.20 0.07 95 1010.5
20170426131636 53 9 0.0 3.0 0.00 0.21 0.07 95 1010.6
20170426131136 53 11 0.0 1.0 0.00 0.21 0.07 95 1010.7
20170426130637 53 11 1.0 7.0 0.01 0.21 0.07 95 1010.8
20170426130126 52 12 1.0 7.0 0.01 0.21 0.07 94 1010.8
20170426125626 52 22 1.0 4.0 0.01 0.21 0.07 94 1010.8
20170426125122 52 9 0.0 4.0 0.01 0.21 0.07 94 1011.0
20170426124618 52 9 0.0 0.0 0.01 0.21 0.07 95 1011.1
20170426124119 52 11 0.0 0.0 0.01 0.21 0.07 95 1011.1
20170426123618 52 11 0.0 1.0 0.01 0.21 0.07 94 1011.2
20170426123119 52 10 0.0 1.0 0.01 0.21 0.07 94 1011.2
20170426122617 52 10 1.0 6.0 0.01 0.21 0.07 94 1011.3
20170426122113 51 10 1.0 6.0 0.02 0.21 0.07 94 1011.2
20170426121613 51 9 0.0 4.0 0.02 0.21 0.07 94 1011.2
20170426121114 51 9 0.0 4.0 0.03 0.21 0.07 94 1011.3
20170426120608 51 11 0.0 3.0 0.02 0.20 0.06 94 1011.2
20170426120110 51 11 0.0 3.0 0.02 0.20 0.06 94 1011.3
20170426115549 51 11 0.0 1.0 0.02 0.20 0.06 94 1011.4
20170426115039 51 11 0.0 3.0 0.03 0.20 0.06 94 1011.5
20170426114535 51 11 0.0 3.0 0.03 0.20 0.06 94 1011.4
20170426114029 51 10 0.0 2.0 0.03 0.20 0.06 94 1011.4
20170426113515 51 10 0.0 2.0 0.03 0.20 0.06 94 1011.3
20170426113014 51 10 0.0 1.0 0.03 0.20 0.06 94 1011.2
20170426112515 51 9 0.0 2.0 0.04 0.20 0.06 94 1011.3
20170426112015 51 9 0.0 2.0 0.03 0.19 0.05 94 1011.3
20170426111514 51 10 0.0 3.0 0.03 0.19 0.05 94 1011.3
20170426111003 51 9 0.0 3.0 0.02 0.18 0.04 94 1011.3
20170426110504 51 9 0.0 0.0 0.02 0.18 0.04 94 1011.2
20170426110005 51 9 0.0 1.0 0.02 0.18 0.04 94 1011.1
20170426105434 51 9 0.0 1.0 0.01 0.17 0.03 94 1011.0
20170426104930 50 9 0.0 0.0 0.01 0.17 0.03 94 1011.0
20170426104433 50 9 0.0 0.0 0.01 0.17 0.03 94 1011.0
20170426103929 50 9 0.0 0.0 0.01 0.17 0.03 94 1011.0
20170426103428 50 9 0.0 3.0 0.01 0.17 0.03 94 1011.0
20170426102924 50 10 0.0 3.0 0.00 0.16 0.03 94 1011.0
20170426102424 50 9 0.0 1.0 0.00 0.16 0.02 94 1011.0
20170426101920 50 9 0.0 0.0 0.00 0.16 0.02 94 1011.0
20170426101423 50 9 0.0 2.0 0.00 0.16 0.02 94 1011.1
20170426100853 50 9 0.0 2.0 0.00 0.16 0.02 94 1011.1
20170426100348 50 9 0.0 1.0 0.00 0.16 0.02 94 1011.2
20170426095829 50 9 0.0 1.0 0.00 0.16 0.02 94 1011.2
20170426095325 50 9 0.0 2.0 0.00 0.16 0.02 94 1011.2
20170426094819 50 9 0.0 2.0 0.00 0.16 0.02 94 1011.2
20170426094303 50 20 0.0 1.0 0.00 0.16 0.02 94 1011.2
20170426093757 50 20 0.0 1.0 0.00 0.16 0.02 94 1011.1
20170426093244 50 20 0.0 0.0 0.00 0.16 0.02 94 1011.2
20170426092741 50 20 0.0 0.0 0.00 0.16 0.02 94 1011.2
20170426092224 50 20 0.0 1.0 0.00 0.16 0.02 94 1011.2
20170426091721 50 10 0.0 0.0 0.00 0.16 0.02 94 1011.2
20170426091220 50 11 0.0 0.0 0.00 0.16 0.02 94 1011.2
20170426090721 50 10 0.0 0.0 0.00 0.16 0.02 94 1011.3
20170426090219 50 11 0.0 2.0 0.00 0.16 0.02 94 1011.3
20170426085721 50 10 0.0 3.0 0.00 0.16 0.02 94 1011.3
20170426085211 50 11 0.0 3.0 0.00 0.16 0.02 94 1011.4
20170426084710 50 10 0.0 1.0 0.00 0.16 0.02 94 1011.3
20170426084149 50 9 0.0 2.0 0.00 0.16 0.02 94 1011.3
20170426083642 50 9 0.0 2.0 0.00 0.16 0.02 94 1011.3
20170426083144 50 0 0.0 2.0 0.00 0.16 0.02 94 1011.3
20170426082642 50 17 0.0 2.0 0.00 0.16 0.02 94 1011.3
20170426082134 50 17 0.0 2.0 0.00 0.16 0.02 94 1011.5
20170426081631 50 15 0.0 3.0 0.00 0.16 0.02 94 1011.5
20170426081116 50 15 0.0 3.0 0.00 0.16 0.02 94 1011.6
20170426080532 50 9 0.0 1.0 0.00 0.16 0.02 94 1011.6
20170426075955 50 9 0.0 3.0 0.00 0.16 0.02 94 1011.7
20170426075456 50 9 0.0 3.0 0.00 0.16 0.02 94 1011.7
20170426074936 50 22 0.0 3.0 0.00 0.16 0.02 94 1011.8
20170426074433 50 9 0.0 2.0 0.00 0.16 0.02 94 1011.9
20170426073917 50 9 0.0 1.0 0.00 0.16 0.02 94 1012.0
20170426073409 50 9 0.0 1.0 0.00 0.16 0.02 94 1012.1
20170426072859 50 10 0.0 1.0 0.00 0.16 0.02 94 1012.1
20170426072349 50 9 0.0 2.0 0.00 0.16 0.02 94 1012.2
20170426071851 50 9 0.0 3.0 0.00 0.16 0.02 94 1012.3
20170426071351 50 5 0.0 3.0 0.00 0.16 0.02 94 1012.3
20170426070847 50 10 0.0 3.0 0.00 0.16 0.02 94 1012.4
20170426070335 50 9 0.0 2.0 0.00 0.16 0.02 94 1012.4
20170426065835 50 9 0.0 2.0 0.00 0.16 0.02 94 1012.6
20170426065333 50 5 0.0 0.0 0.00 0.16 0.02 94 1012.6
20170426064819 50 5 0.0 3.0 0.00 0.16 0.02 94 1012.6
20170426064313 50 9 0.0 3.0 0.00 0.16 0.02 94 1012.6
20170426063813 50 10 0.0 2.0 0.00 0.16 0.02 94 1012.7
20170426063311 50 11 0.0 2.0 0.00 0.16 0.02 94 1012.8
20170426062811 50 9 0.0 1.0 0.01 0.16 0.02 94 1012.9
20170426062311 50 9 0.0 0.0 0.01 0.16 0.02 93 1013.0
20170426061801 50 9 0.0 0.0 0.01 0.16 0.02 93 1013.1
20170426061239 50 11 0.0 0.0 0.01 0.16 0.02 93 1013.1
20170426060739 50 22 0.0 3.0 0.02 0.16 0.02 93 1013.2
20170426060229 50 23 0.0 3.0 0.02 0.16 0.02 93 1013.3
20170426055715 50 10 0.0 2.0 0.02 0.16 0.02 93 1013.3
20170426055207 50 9 0.0 1.0 0.02 0.16 0.02 93 1013.3
20170426054649 50 9 0.0 1.0 0.02 0.16 0.02 93 1013.4
20170426054143 50 9 0.0 4.0 0.02 0.16 0.02 93 1013.4
20170426053639 50 9 0.0 4.0 0.02 0.16 0.02 93 1013.3
20170426053139 50 9 0.0 0.0 0.02 0.16 0.02 93 1013.4
20170426052637 50 5 0.0 3.0 0.01 0.15 0.01 93 1013.5
20170426052131 50 11 0.0 4.0 0.01 0.15 0.01 93 1013.5
20170426051625 50 10 0.0 6.0 0.01 0.15 0.01 93 1013.5
20170426051101 51 9 0.0 6.0 0.01 0.15 0.01 93 1013.5
20170426050604 51 9 0.0 2.0 0.00 0.14 0.00 93 1013.6
20170426050103 51 9 0.0 1.0 0.00 0.14 0.00 93 1014.1
20170426045559 51 9 0.0 4.0 0.00 0.14 0.00 93 1014.1
20170426045059 51 10 0.0 4.0 0.00 0.14 0.00 93 1014.1
20170426044559 51 12 0.0 2.0 0.00 0.14 0.00 93 1014.4
20170426044055 51 10 0.0 2.0 0.00 0.14 0.00 93 1014.4
20170426043553 51 10 0.0 0.0 0.00 0.14 0.00 93 1014.5
20170426043045 51 11 1.0 4.0 0.00 0.14 0.00 93 1014.5
20170426042546 51 11 1.0 4.0 0.00 0.14 0.00 93 1014.6
20170426042036 51 11 0.0 4.0 0.00 0.14 0.00 93 1014.7
20170426041534 51 11 0.0 4.0 0.00 0.14 0.00 93 1014.7
20170426041032 51 11 0.0 5.0 0.00 0.14 0.00 93 1014.7
20170426040532 51 11 1.0 5.0 0.00 0.14 0.00 93 1014.8
20170426040030 51 11 1.0 5.0 0.00 0.14 0.00 92 1014.9
20170426035520 51 11 0.0 4.0 0.00 0.14 0.14 92 1015.0
20170426035018 51 10 0.0 3.0 0.00 0.14 0.14 92 1015.0
20170426034510 51 10 0.0 3.0 0.01 0.14 0.14 92 1015.1
20170426034010 51 11 0.0 3.0 0.01 0.14 0.14 92 1015.2
20170426033502 51 9 0.0 3.0 0.02 0.14 0.14 92 1015.3
20170426033002 51 10 0.0 5.0 0.02 0.14 0.14 92 1015.4
20170426032500 51 9 0.0 5.0 0.02 0.14 0.14 92 1015.4
20170426032002 51 10 0.0 3.0 0.02 0.14 0.14 92 1015.4
20170426031500 51 11 0.0 4.0 0.02 0.14 0.14 92 1015.5
20170426031001 51 9 0.0 4.0 0.03 0.14 0.14 92 1015.6
20170426030456 51 11 0.0 2.0 0.03 0.14 0.14 92 1015.6
20170426025956 51 10 0.0 3.0 0.03 0.14 0.14 92 1015.9
20170426025456 51 10 0.0 3.0 0.04 0.14 0.14 92 1015.9
20170426024954 51 10 0.0 0.0 0.04 0.14 0.14 92 1015.9
20170426024450 51 10 0.0 3.0 0.03 0.13 0.13 91 1016.0
20170426023934 51 10 0.0 3.0 0.02 0.12 0.13 91 1016.0
20170426023431 51 10 0.0 4.0 0.02 0.12 0.12 91 1016.0
20170426022930 51 11 0.0 4.0 0.02 0.12 0.12 91 1016.1
20170426022427 51 11 0.0 4.0 0.02 0.12 0.12 91 1016.1
20170426021926 51 11 0.0 5.0 0.02 0.12 0.12 91 1016.2
20170426021426 51 11 0.0 5.0 0.02 0.12 0.12 91 1016.4
20170426020913 51 9 0.0 4.0 0.02 0.11 0.11 91 1016.4
20170426020414 51 10 0.0 4.0 0.02 0.11 0.11 91 1016.5
20170426015914 51 11 0.0 4.0 0.03 0.11 0.11 91 1016.4
20170426015402 51 11 0.0 3.0 0.02 0.10 0.10 90 1016.4
20170426014858 51 11 1.0 4.0 0.02 0.10 0.10 90 1016.5
20170426014358 51 11 1.0 4.0 0.02 0.10 0.10 90 1016.5
20170426013856 51 11 0.0 4.0 0.02 0.10 0.10 90 1016.6
20170426013358 51 11 1.0 3.0 0.02 0.10 0.10 90 1016.7
20170426012856 51 11 1.0 5.0 0.02 0.10 0.10 90 1016.8
20170426012350 51 11 1.0 4.0 0.02 0.10 0.10 89 1016.8
20170426011842 51 11 0.0 4.0 0.02 0.10 0.10 89 1016.9
20170426011334 52 11 1.0 5.0 0.02 0.10 0.10 89 1016.8
20170426010825 52 11 1.0 5.0 0.01 0.09 0.09 89 1016.9
20170426010320 52 10 1.0 4.0 0.02 0.09 0.09 89 1016.8
20170426005822 52 9 0.0 3.0 0.01 0.08 0.08 88 1016.8
20170426005312 52 9 0.0 3.0 0.01 0.08 0.08 88 1016.8
20170426004809 52 5 0.0 3.0 0.01 0.08 0.08 88 1016.7
20170426004247 52 5 0.0 3.0 0.01 0.08 0.08 88 1016.7
20170426003742 52 5 1.0 5.0 0.01 0.08 0.08 87 1016.7
20170426003240 52 5 0.0 5.0 0.01 0.08 0.08 87 1016.8
20170426002739 53 5 0.0 3.0 0.01 0.08 0.08 87 1016.8
20170426002240 53 5 0.0 3.0 0.01 0.08 0.08 86 1016.8
20170426001731 53 5 0.0 5.0 0.01 0.08 0.08 86 1016.9
20170426001232 53 5 0.0 5.0 0.01 0.08 0.08 86 1016.9
20170426000728 53 5 0.0 3.0 0.01 0.08 0.08 86 1016.9
20170426000227 53 9 1.0 5.0 0.00 0.07 0.07 85 1016.9
20170425235156 53 5 0.0 3.0 0.00 0.07 0.07 85 1017.0
20170425234656 53 5 0.0 3.0 0.00 0.07 0.07 85 1017.0
20170425234140 53 5 0.0 2.0 0.00 0.07 0.07 85 1016.9
20170425233639 53 5 0.0 1.0 0.00 0.07 0.07 85 1017.1
20170425233120 53 5 0.0 1.0 0.00 0.07 0.07 85 1017.1
20170425232605 53 9 0.0 3.0 0.00 0.07 0.07 85 1017.1
20170425232101 54 5 1.0 4.0 0.00 0.07 0.07 85 1017.1
20170425231552 54 5 1.0 5.0 0.00 0.07 0.07 85 1017.1
20170425231047 54 5 0.0 5.0 0.00 0.07 0.07 85 1017.1
20170425230543 54 5 1.0 4.0 0.00 0.07 0.07 85 1017.1
20170425230041 54 5 1.0 5.0 0.00 0.07 0.07 85 1017.2
20170425225536 54 5 1.0 5.0 0.00 0.07 0.07 85 1017.1
20170425225037 54 5 1.0 6.0 0.00 0.07 0.07 85 1017.1
20170425224536 54 5 1.0 6.0 0.00 0.07 0.07 85 1017.2
20170425224036 54 5 1.0 6.0 0.01 0.07 0.07 85 1017.3
20170425223529 54 9 2.0 6.0 0.01 0.07 0.07 85 1017.3
20170425223024 54 5 2.0 6.0 0.01 0.07 0.07 86 1017.2
20170425222520 54 5 3.0 9.0 0.01 0.07 0.07 86 1017.2
20170425222019 55 5 2.0 9.0 0.01 0.07 0.07 86 1017.2
20170425221512 55 5 1.0 7.0 0.01 0.07 0.07 86 1017.4
20170425221014 55 5 1.0 5.0 0.01 0.07 0.07 86 1017.4
20170425220503 55 5 1.0 5.0 0.01 0.07 0.07 86 1017.5
20170425220000 55 5 1.0 6.0 0.01 0.07 0.07 86 1017.5
20170425215501 55 5 1.0 6.0 0.01 0.07 0.07 86 1017.4
20170425215000 55 5 1.0 5.0 0.01 0.07 0.07 86 1017.5
20170425214456 55 9 1.0 7.0 0.01 0.07 0.07 86 1017.4
20170425213951 55 5 1.0 7.0 0.00 0.06 0.06 85 1017.5
20170425213447 55 5 1.0 6.0 0.00 0.06 0.06 85 1017.7
20170425212947 56 5 1.0 5.0 0.00 0.06 0.06 85 1017.6
20170425212447 56 9 1.0 5.0 0.00 0.06 0.06 85 1017.9
20170425211946 56 9 0.0 1.0 0.00 0.06 0.06 84 1018.0
20170425211444 56 5 1.0 5.0 0.00 0.06 0.06 84 1017.9
20170425210938 56 5 1.0 5.0 0.00 0.06 0.06 84 1018.0
20170425210438 56 9 1.0 6.0 0.00 0.06 0.06 84 1018.2
20170425205938 56 5 3.0 9.0 0.00 0.06 0.06 84 1018.1
20170425205438 56 5 3.0 9.0 0.00 0.06 0.06 84 1017.9
20170425204938 56 5 2.0 7.0 0.00 0.06 0.06 85 1018.0
20170425204439 56 5 0.0 3.0 0.00 0.06 0.06 85 1018.0
20170425203939 56 5 0.0 2.0 0.00 0.06 0.06 84 1018.2
20170425203434 55 5 0.0 2.0 0.00 0.06 0.06 84 1018.2
20170425202930 55 5 0.0 1.0 0.00 0.06 0.06 84 1018.3
20170425202431 55 9 0.0 1.0 0.00 0.06 0.06 84 1018.3
20170425201926 55 9 0.0 1.0 0.00 0.06 0.06 84 1018.4
20170425201428 55 9 0.0 1.0 0.00 0.06 0.06 84 1018.5
20170425200927 55 5 0.0 2.0 0.00 0.06 0.06 85 1018.4
20170425200423 55 5 0.0 2.0 0.00 0.06 0.06 85 1018.5
20170425195921 55 5 0.0 1.0 0.00 0.06 0.06 85 1018.6
20170425195416 55 5 0.0 3.0 0.00 0.06 0.06 85 1018.7
20170425194914 54 5 0.0 3.0 0.00 0.06 0.06 86 1018.8
20170425194412 54 9 0.0 3.0 0.00 0.06 0.06 86 1018.8
20170425193915 54 5 0.0 3.0 0.00 0.06 0.06 86 1019.0
20170425193410 54 5 0.0 2.0 0.00 0.06 0.06 86 1019.1
20170425192911 54 5 0.0 4.0 0.00 0.06 0.06 86 1019.2
20170425192405 53 9 0.0 4.0 0.00 0.06 0.06 86 1019.3
20170425191858 53 5 0.0 4.0 0.00 0.06 0.06 87 1019.4
20170425191400 53 5 0.0 5.0 0.00 0.06 0.06 87 1019.6
20170425190857 53 9 0.0 5.0 0.00 0.06 0.06 87 1019.7
20170425190343 53 9 1.0 5.0 0.00 0.06 0.06 87 1019.8
20170425185838 53 5 1.0 5.0 0.00 0.06 0.06 87 1019.8
20170425185339 53 9 0.0 3.0 0.00 0.06 0.06 88 1019.9
20170425184838 53 5 0.0 3.0 0.00 0.06 0.06 88 1019.9
20170425184338 53 5 0.0 3.0 0.00 0.06 0.06 88 1019.9
20170425183838 53 9 0.0 1.0 0.00 0.06 0.06 88 1020.0
20170425183335 53 9 0.0 2.0 0.00 0.06 0.06 88 1020.3
20170425182836 53 5 0.0 2.0 0.00 0.06 0.06 88 1020.3
20170425182335 52 5 0.0 0.0 0.00 0.06 0.06 88 1020.4
20170425181836 52 5 0.0 3.0 0.00 0.06 0.06 88 1020.6
20170425181333 52 9 0.0 3.0 0.00 0.06 0.06 88 1020.8
20170425180829 52 11 0.0 1.0 0.00 0.06 0.06 89 1020.8
20170425180316 52 12 0.0 1.0 0.00 0.06 0.06 89 1020.8
20170425175803 52 10 0.0 2.0 0.00 0.06 0.06 89 1020.9
20170425175257 52 9 0.0 2.0 0.00 0.06 0.06 89 1020.9
20170425174753 52 10 0.0 2.0 0.00 0.06 0.06 89 1020.9
20170425174252 51 9 0.0 3.0 0.00 0.06 0.06 89 1021.0
20170425173753 51 10 0.0 3.0 0.00 0.06 0.06 89 1021.1
20170425173249 51 9 0.0 4.0 0.00 0.06 0.06 89 1021.0
20170425172747 51 9 0.0 4.0 0.00 0.06 0.06 89 1021.1
20170425172242 51 11 0.0 4.0 0.00 0.06 0.06 89 1021.2
20170425171734 51 11 0.0 0.0 0.00 0.06 0.06 89 1021.2
20170425171234 51 11 0.0 3.0 0.00 0.06 0.06 89 1021.2
20170425170726 51 11 0.0 3.0 0.00 0.06 0.06 89 1021.2
20170425170220 51 9 0.0 2.0 0.00 0.06 0.06 89 1021.2
20170425165720 51 24 0.0 2.0 0.00 0.06 0.06 89 1021.3
20170425165221 50 12 1.0 4.0 0.00 0.06 0.06 89 1021.4
20170425164717 50 11 1.0 4.0 0.00 0.06 0.06 89 1021.5
20170425164215 50 9 1.0 6.0 0.00 0.06 0.06 89 1021.5
20170425163709 50 11 1.0 9.0 0.01 0.06 0.06 89 1021.6
20170425163211 50 11 1.0 9.0 0.01 0.06 0.06 89 1021.5
20170425162705 50 11 0.0 3.0 0.01 0.06 0.06 89 1021.6
20170425162203 50 9 1.0 4.0 0.01 0.06 0.06 89 1021.8
20170425161658 50 10 1.0 4.0 0.01 0.06 0.06 89 1021.9
20170425161158 50 9 0.0 2.0 0.01 0.06 0.06 89 1022.0
20170425160657 50 22 0.0 2.0 0.01 0.06 0.06 88 1022.0
20170425160152 50 21 0.0 3.0 0.02 0.06 0.06 89 1022.0
20170425155653 49 10 0.0 4.0 0.02 0.06 0.06 88 1022.1
20170425155152 49 9 0.0 4.0 0.02 0.06 0.06 88 1022.1
20170425154643 49 10 0.0 2.0 0.02 0.06 0.06 88 1022.2
20170425154139 49 11 0.0 2.0 0.02 0.06 0.06 88 1022.2
20170425153639 49 11 0.0 3.0 0.01 0.05 0.05 87 1022.2
20170425153138 49 11 0.0 3.0 0.01 0.05 0.05 87 1022.4
20170425152638 49 11 0.0 3.0 0.01 0.05 0.05 87 1022.5
20170425152137 49 10 0.0 2.0 0.01 0.05 0.05 87 1022.5
20170425151639 49 9 0.0 2.0 0.02 0.05 0.05 86 1022.5
20170425151133 49 9 0.0 2.0 0.02 0.05 0.05 86 1022.6
20170425150635 49 9 0.0 1.0 0.03 0.05 0.05 86 1022.5
20170425150133 48 9 0.0 1.0 0.02 0.04 0.04 85 1022.6
20170425145633 48 10 0.0 0.0 0.02 0.04 0.04 85 1022.6
20170425145133 48 10 0.0 0.0 0.02 0.04 0.04 85 1022.6
20170425144633 48 9 0.0 1.0 0.02 0.04 0.04 84 1022.6
20170425144131 48 10 0.0 1.0 0.02 0.04 0.04 84 1022.6
20170425143632 48 11 0.0 1.0 0.02 0.04 0.04 83 1022.5
20170425143131 48 11 0.0 1.0 0.02 0.04 0.04 82 1022.6
20170425142611 48 10 0.0 2.0 0.03 0.04 0.04 82 1022.5
20170425142107 48 10 0.0 1.0 0.02 0.03 0.03 81 1022.6
20170425141557 48 10 0.0 0.0 0.03 0.03 0.03 81 1022.6
20170425141056 48 9 0.0 1.0 0.03 0.03 0.03 80 1022.7
20170425140539 48 9 0.0 1.0 0.02 0.02 0.02 79 1022.8
20170425140039 48 9 0.0 1.0 0.02 0.02 0.02 78 1022.8
20170425135541 48 9 0.0 1.0 0.02 0.02 0.02 76 1022.8
20170425135034 48 9 0.0 1.0 0.02 0.02 0.02 76 1022.8